Regional Weather Roundup
Issued by NWS Cleveland, OH

Home | Current Version | Previous Version | Graphics & Text | Print | Product List | Glossary On
Versions: 1 2 3 4 5 6 7 8 9 10 11 12 13 14 15 16 17 18 19 20 21 22 23 24 25 26 27 28 29 30 31 32 33 34 35 36 37 38 39 40 41 42 43 44 45 46 47 48 49 50
000
ASUS41 KCLE 012310
RWRCLE
OHIO REGIONAL WEATHER ROUNDUP
NATIONAL WEATHER SERVICE CLEVELAND, OH
700 PM EDT WED JUL 01 2015

NOTE: "FAIR" INDICATES FEW OR NO CLOUDS BELOW 12,000 FEET WITH NO
SIGNIFICANT WEATHER AND/OR OBSTRUCTIONS TO VISIBILITY.

OHZ001>008-015>018-024>027-034-035-043-044-020000-
   NORTHWEST OHIO

CITY           SKY/WX    TMP DP  RH WIND       PRES   REMARKS
DEFIANCE       SUNNY     74  55  51 NW8       29.90S
FINDLAY        SUNNY     75  56  51 W7        29.89S
TOLEDO EXPRESS MOSUNNY   72  55  55 NW6       29.89S
TOLEDO EXEC    MOSUNNY   73  55  53 NW8       29.90S
LIMA           MOSUNNY   73  58  59 NW6       29.90S
$$

OHZ009>014-019>023-028>033-038-089-020000-
   NORTHEAST OHIO

CITY           SKY/WX    TMP DP  RH WIND       PRES   REMARKS
CLE-HOPKINS    MOSUNNY   71  60  68 N7        29.91S
CLE-LAKEFRONT  SUNNY     71  59  65 NW5       29.89F
CUY CO. ARPT   SUNNY     72  59  64 NW9       29.91S
LORAIN-ELYRIA  PTSUNNY   72  60  66 N5        29.90S
ASHTABULA      PTSUNNY   71  58  63 NW6       29.91S
AKRON-CANTON   MOSUNNY   74  56  53 W12       29.90S
WOOSTER        SUNNY     72  57  59 W7        29.91F
MANSFIELD      SUNNY     72  57  59 W6        29.92S
YOUNGSTOWN     PTSUNNY   71  58  63 N7        29.90R
$$

OHZ042-051>053-060>062-070>072-077>081-020000-
  SOUTHWEST OHIO

CITY           SKY/WX    TMP DP  RH WIND       PRES   REMARKS
CINC-COVINGTON CLOUDY    78  63  59 N3        29.90S
CINC-LUNKEN    MOSUNNY   77  63  61 CALM      29.89S
HAMILTON       SUNNY     78  63  59 W6        29.90S
DAYTON         MOSUNNY   78  60  53 CALM      29.91S
WRIGHT-PAT AFB SUNNY     77  57  50 NW5       29.90S
DAYTON GENERAL SUNNY     77  57  50 W5        29.90S
WILMINGTON     SUNNY     75  59  57 S5        29.90F
$$

OHZ036-037-039>041-045>050-054>059-063>069-073>076-082>088-020000-
  CENTRAL AND SOUTHEAST OHIO

CITY           SKY/WX    TMP DP  RH WIND       PRES   REMARKS
COLUMBUS       MOSUNNY   74  57  55 NW7       29.89F
OSU AIRPORT    MOSUNNY   76  57  51 W8        29.89F
BOLTON FIELD   SUNNY     75  61  60 NW5       29.90F
RICKENBACK AFB SUNNY     76  58  54 W7        29.90S
NEWARK         MOSUNNY   77  58  51 NW5       29.90S
MARION         SUNNY     74  56  53 NW7       29.90F
LANCASTER      MOSUNNY   76  61  59 CALM      29.91S
ZANESVILLE     NOT AVBL
NEW PHILLY     SUNNY     74  58  57 W6        29.91S
$$


USA.gov is the U.S. government's official web portal to all federal, state and local government web resources and services.